BCS3906 EKCH-ESOE

Flight info

Callsign BCS3906
Flight time 0h 41m
Altitude 32000
Route KEMAX N851 NEXIL M736 RASMU/N0447F310 DCT JON
Aircraft A306/H-SDE3FGHIRWY/LB1

Departure

Time 2026-05-07 05:54
Airport Copenhagen Kastrup Airport (EKCH)

Arrival

Time 2026-05-07 06:35
Airport Örebro Airport (ESOE)
Time Latitude Longitude Altitude Speed Heading
2026-05-07 05:27 55.61720 12.67209 30 ft 0 kts 79°
2026-05-07 05:42 55.61719 12.67202 30 ft 3 kts 79°
2026-05-07 05:42 55.61714 12.67156 30 ft 4 kts 79°
2026-05-07 05:43 55.61709 12.67115 28 ft 2 kts 79°
2026-05-07 05:43 55.61707 12.67072 29 ft 4 kts 103°
2026-05-07 05:43 55.61718 12.67033 30 ft 4 kts 144°
2026-05-07 05:43 55.61740 12.67018 30 ft 4 kts 169°
2026-05-07 05:44 55.61754 12.67013 29 ft 2 kts 169°
2026-05-07 05:45 55.61752 12.67014 30 ft 3 kts 169°
2026-05-07 05:46 55.61690 12.67035 30 ft 15 kts 168°
2026-05-07 05:46 55.61585 12.67073 30 ft 15 kts 168°
2026-05-07 05:46 55.61491 12.67106 30 ft 14 kts 168°
2026-05-07 05:46 55.61381 12.67134 30 ft 17 kts 181°
2026-05-07 05:47 55.61283 12.67040 31 ft 15 kts 249°
2026-05-07 05:47 55.61328 12.66854 30 ft 20 kts 303°
2026-05-07 05:47 55.61412 12.66626 30 ft 22 kts 303°
2026-05-07 05:47 55.61495 12.66403 30 ft 21 kts 303°
2026-05-07 05:48 55.61580 12.66176 31 ft 25 kts 303°
2026-05-07 05:48 55.61683 12.65896 32 ft 29 kts 303°
2026-05-07 05:48 55.61791 12.65605 29 ft 29 kts 303°
2026-05-07 05:48 55.61903 12.65305 28 ft 29 kts 303°
2026-05-07 05:49 55.62001 12.65043 29 ft 15 kts 303°
2026-05-07 05:49 55.61976 12.64910 29 ft 15 kts 214°
2026-05-07 05:49 55.61894 12.64815 30 ft 14 kts 213°
2026-05-07 05:49 55.61816 12.64726 30 ft 13 kts 213°
2026-05-07 05:50 55.61736 12.64634 28 ft 16 kts 213°
2026-05-07 05:50 55.61613 12.64493 30 ft 24 kts 213°
2026-05-07 05:50 55.61475 12.64333 30 ft 23 kts 213°
2026-05-07 05:50 55.61345 12.64185 30 ft 22 kts 213°
2026-05-07 05:51 55.61223 12.64044 30 ft 20 kts 213°
2026-05-07 05:51 55.61109 12.63912 30 ft 19 kts 213°
2026-05-07 05:51 55.60980 12.63765 30 ft 22 kts 213°
2026-05-07 05:51 55.60855 12.63620 30 ft 21 kts 212°
2026-05-07 05:52 55.60737 12.63487 30 ft 20 kts 213°
2026-05-07 05:52 55.60627 12.63348 30 ft 21 kts 221°
2026-05-07 05:52 55.60522 12.63186 30 ft 19 kts 221°
2026-05-07 05:52 55.60416 12.63140 30 ft 16 kts 140°
2026-05-07 05:53 55.60349 12.63286 32 ft 14 kts 109°
2026-05-07 05:53 55.60391 12.63425 31 ft 19 kts 43°
2026-05-07 05:53 55.60649 12.63823 32 ft 83 kts 41°
2026-05-07 05:53 55.61247 12.64747 31 ft 142 kts 41°
2026-05-07 05:54 55.62119 12.66091 217 ft 180 kts 39°
2026-05-07 05:54 55.63058 12.67553 1120 ft 181 kts 41°
2026-05-07 05:54 55.64043 12.69100 1753 ft 198 kts 41°
2026-05-07 05:54 55.65111 12.70736 2416 ft 207 kts 40°
2026-05-07 05:55 55.66261 12.72458 2858 ft 230 kts 39°
2026-05-07 05:55 55.67543 12.74367 3421 ft 248 kts 39°
2026-05-07 05:55 55.68876 12.76354 4317 ft 252 kts 40°
2026-05-07 05:55 55.70229 12.78373 5252 ft 256 kts 39°
2026-05-07 05:56 55.71131 12.79724 5883 ft 258 kts 39°
2026-05-07 05:56 55.72512 12.81799 6804 ft 262 kts 39°
2026-05-07 05:56 55.74376 12.84624 8011 ft 269 kts 40°
2026-05-07 05:56 55.75799 12.86830 8896 ft 274 kts 40°
2026-05-07 05:57 55.77244 12.89091 9824 ft 279 kts 40°
2026-05-07 05:57 55.78717 12.91403 10500 ft 290 kts 40°
2026-05-07 05:57 55.79766 12.93054 10692 ft 305 kts 40°
2026-05-07 05:57 55.81941 12.96486 11048 ft 332 kts 40°
2026-05-07 05:58 55.83109 12.98317 11228 ft 344 kts 40°
2026-05-07 05:58 55.84947 13.01209 11501 ft 361 kts 40°
2026-05-07 05:58 55.86856 13.04223 11954 ft 370 kts 40°
2026-05-07 05:58 55.88794 13.07289 12530 ft 375 kts 40°
2026-05-07 05:59 55.90756 13.10406 13156 ft 380 kts 40°
2026-05-07 05:59 55.92746 13.13563 13706 ft 385 kts 40°
2026-05-07 05:59 55.94760 13.16760 14254 ft 390 kts 40°
2026-05-07 05:59 55.96802 13.20006 14782 ft 395 kts 40°
2026-05-07 06:00 55.98860 13.23285 15301 ft 399 kts 40°
2026-05-07 06:00 56.00945 13.26612 15840 ft 403 kts 40°
2026-05-07 06:00 56.03048 13.29972 16361 ft 408 kts 40°
2026-05-07 06:00 56.05176 13.33379 16910 ft 412 kts 40°
2026-05-07 06:01 56.07294 13.36773 17419 ft 417 kts 40°
2026-05-07 06:01 56.09463 13.40256 17960 ft 421 kts 40°
2026-05-07 06:01 56.11655 13.43771 18462 ft 425 kts 39°
2026-05-07 06:01 56.13949 13.47151 18871 ft 429 kts 36°
2026-05-07 06:02 56.16343 13.50406 19302 ft 432 kts 34°
2026-05-07 06:02 56.18789 13.53598 19739 ft 436 kts 33°
2026-05-07 06:02 56.21271 13.56789 20159 ft 439 kts 33°
2026-05-07 06:02 56.23765 13.59995 20562 ft 443 kts 33°
2026-05-07 06:03 56.26277 13.63246 20963 ft 446 kts 33°
2026-05-07 06:03 56.28801 13.66538 21362 ft 450 kts 34°
2026-05-07 06:03 56.31394 13.69645 21750 ft 451 kts 27°
2026-05-07 06:03 56.34220 13.72104 22134 ft 451 kts 18°
2026-05-07 06:04 56.37225 13.73670 22554 ft 449 kts
2026-05-07 06:04 56.40279 13.74624 22932 ft 451 kts
2026-05-07 06:04 56.43395 13.75352 23301 ft 453 kts
2026-05-07 06:04 56.46538 13.75956 23653 ft 455 kts
2026-05-07 06:05 56.49700 13.76516 23953 ft 458 kts
2026-05-07 06:05 56.52888 13.77078 24268 ft 460 kts
2026-05-07 06:05 56.56085 13.77658 24566 ft 462 kts
2026-05-07 06:05 56.59292 13.78260 24875 ft 464 kts
2026-05-07 06:06 56.62507 13.78880 25198 ft 466 kts
2026-05-07 06:06 56.65739 13.79513 25546 ft 467 kts
2026-05-07 06:06 56.68974 13.80153 25804 ft 469 kts
2026-05-07 06:06 56.72227 13.80800 26078 ft 471 kts
2026-05-07 06:07 56.75499 13.81456 26343 ft 474 kts
2026-05-07 06:07 56.78778 13.82178 26609 ft 476 kts
2026-05-07 06:07 56.82068 13.82965 26843 ft 478 kts
2026-05-07 06:07 56.85373 13.83784 27095 ft 480 kts
2026-05-07 06:08 56.88690 13.84615 27357 ft 482 kts
2026-05-07 06:08 56.91977 13.85438 27586 ft 484 kts
2026-05-07 06:08 56.95318 13.86269 27810 ft 485 kts
2026-05-07 06:08 56.98676 13.87101 28030 ft 487 kts
2026-05-07 06:09 57.02043 13.87932 28269 ft 488 kts
2026-05-07 06:09 57.05410 13.88763 28586 ft 487 kts
2026-05-07 06:09 57.08771 13.89594 28918 ft 487 kts
2026-05-07 06:09 57.12122 13.90424 29235 ft 486 kts
2026-05-07 06:10 57.15474 13.91256 29589 ft 486 kts
2026-05-07 06:10 57.18824 13.92089 29949 ft 485 kts
2026-05-07 06:10 57.22160 13.92920 30249 ft 484 kts
2026-05-07 06:10 57.25503 13.93753 30515 ft 484 kts
2026-05-07 06:11 57.28839 13.94586 30778 ft 483 kts
2026-05-07 06:11 57.32127 13.95408 31002 ft 483 kts
2026-05-07 06:11 57.35437 13.96240 31041 ft 473 kts
2026-05-07 06:11 57.38649 13.97058 31049 ft 459 kts
2026-05-07 06:12 57.41790 13.97856 31051 ft 454 kts
2026-05-07 06:12 57.48039 13.99425 31042 ft 452 kts
2026-05-07 06:13 57.54328 14.00998 31040 ft 461 kts
2026-05-07 06:13 57.60779 14.02619 31040 ft 473 kts
2026-05-07 06:14 57.67348 14.04296 31043 ft 477 kts
2026-05-07 06:14 57.73881 14.05979 31045 ft 477 kts
2026-05-07 06:14 57.77098 14.07360 30838 ft 470 kts 15°
2026-05-07 06:15 57.80143 14.09324 30393 ft 455 kts 13°
2026-05-07 06:15 57.83161 14.11144 29588 ft 456 kts 13°
2026-05-07 06:15 57.86141 14.12999 28906 ft 453 kts 14°
2026-05-07 06:15 57.89116 14.14888 28308 ft 448 kts 14°
2026-05-07 06:16 57.92060 14.16768 27670 ft 445 kts 14°
2026-05-07 06:16 57.94978 14.18638 27045 ft 441 kts 14°
2026-05-07 06:16 57.97877 14.20500 26429 ft 438 kts 14°
2026-05-07 06:16 58.00745 14.22400 25808 ft 436 kts 17°
2026-05-07 06:17 58.03541 14.24603 25186 ft 435 kts 20°
2026-05-07 06:17 58.06311 14.26814 24614 ft 425 kts 13°
2026-05-07 06:17 58.09121 14.28360 23936 ft 418 kts 12°
2026-05-07 06:17 58.11855 14.29902 23256 ft 411 kts 12°
2026-05-07 06:18 58.14544 14.31494 22614 ft 400 kts 13°
2026-05-07 06:18 58.17152 14.33101 22018 ft 389 kts 14°
2026-05-07 06:18 58.19684 14.34700 21432 ft 379 kts 14°
2026-05-07 06:18 58.22160 14.36286 20887 ft 374 kts 14°
2026-05-07 06:19 58.24628 14.37876 20293 ft 375 kts 14°
2026-05-07 06:19 58.27094 14.39477 19676 ft 372 kts 14°
2026-05-07 06:19 58.29522 14.41064 19105 ft 366 kts 15°
2026-05-07 06:19 58.31907 14.42628 18560 ft 361 kts 15°
2026-05-07 06:20 58.34263 14.44175 17953 ft 356 kts 15°
2026-05-07 06:20 58.36589 14.45705 17366 ft 350 kts 15°
2026-05-07 06:20 58.38874 14.47211 16814 ft 345 kts 15°
2026-05-07 06:20 58.41128 14.48699 16275 ft 340 kts 15°
2026-05-07 06:21 58.43350 14.50166 15730 ft 336 kts 15°
2026-05-07 06:21 58.45521 14.51602 15214 ft 333 kts 15°
2026-05-07 06:21 58.47692 14.53050 14670 ft 330 kts 17°
2026-05-07 06:21 58.49811 14.54704 14173 ft 328 kts 20°
2026-05-07 06:22 58.51881 14.56495 13627 ft 325 kts 21°
2026-05-07 06:22 58.55840 14.60289 12583 ft 319 kts 26°
2026-05-07 06:22 58.57810 14.62385 12076 ft 314 kts 26°
2026-05-07 06:23 58.59712 14.64408 11592 ft 310 kts 26°
2026-05-07 06:23 58.61588 14.66398 11099 ft 306 kts 26°
2026-05-07 06:23 58.63450 14.68365 10589 ft 304 kts 26°
2026-05-07 06:23 58.65293 14.70305 10187 ft 297 kts 26°
2026-05-07 06:24 58.67048 14.72150 9958 ft 283 kts 26°
2026-05-07 06:24 58.68736 14.73934 9792 ft 265 kts 26°
2026-05-07 06:24 58.70311 14.75603 9556 ft 252 kts 26°
2026-05-07 06:24 58.71805 14.77184 9170 ft 246 kts 26°
2026-05-07 06:25 58.73315 14.78768 8622 ft 249 kts 26°
2026-05-07 06:25 58.74852 14.80351 8058 ft 251 kts 26°
2026-05-07 06:25 58.76407 14.81911 7519 ft 253 kts 25°
2026-05-07 06:25 58.78020 14.83280 6976 ft 253 kts 20°
2026-05-07 06:26 58.79707 14.84272 6453 ft 254 kts 14°
2026-05-07 06:26 58.81405 14.85088 5938 ft 247 kts 15°
2026-05-07 06:26 58.82969 14.86289 5400 ft 238 kts 25°
2026-05-07 06:26 58.84432 14.87708 4817 ft 232 kts 26°
2026-05-07 06:27 58.85867 14.89097 4216 ft 230 kts 25°
2026-05-07 06:27 58.87319 14.90415 3883 ft 230 kts 16°
2026-05-07 06:27 58.88856 14.90809 3620 ft 222 kts
2026-05-07 06:27 58.90374 14.91084 3377 ft 214 kts
2026-05-07 06:28 58.91801 14.91563 3222 ft 202 kts
2026-05-07 06:28 58.93167 14.92101 3064 ft 200 kts 10°
2026-05-07 06:28 58.94526 14.92643 2977 ft 196 kts 10°
2026-05-07 06:28 58.95824 14.93166 2914 ft 188 kts 11°
2026-05-07 06:29 58.97097 14.93683 2807 ft 184 kts 10°
2026-05-07 06:29 58.98314 14.94177 2663 ft 173 kts 10°
2026-05-07 06:29 58.99467 14.94645 2550 ft 166 kts 10°
2026-05-07 06:29 59.00596 14.95105 2543 ft 165 kts 10°
2026-05-07 06:30 59.01718 14.95560 2529 ft 165 kts 10°
2026-05-07 06:30 59.02847 14.96001 2534 ft 165 kts 11°
2026-05-07 06:30 59.03980 14.96437 2534 ft 166 kts 11°
2026-05-07 06:30 59.05109 14.96877 2559 ft 164 kts 11°
2026-05-07 06:31 59.06226 14.97316 2535 ft 164 kts 11°
2026-05-07 06:31 59.07347 14.97763 2538 ft 162 kts 11°
2026-05-07 06:31 59.08388 14.98182 2557 ft 145 kts 11°
2026-05-07 06:31 59.09359 14.98573 2535 ft 142 kts 11°
2026-05-07 06:32 59.10331 14.98964 2377 ft 143 kts 11°
2026-05-07 06:32 59.11302 14.99352 2165 ft 142 kts 11°
2026-05-07 06:32 59.12272 14.99740 1956 ft 142 kts 11°
2026-05-07 06:32 59.13237 15.00127 1755 ft 141 kts 11°
2026-05-07 06:33 59.14198 15.00512 1532 ft 141 kts 11°
2026-05-07 06:33 59.15143 15.00891 1351 ft 140 kts 11°
2026-05-07 06:33 59.16098 15.01274 1141 ft 140 kts 11°
2026-05-07 06:33 59.17050 15.01661 939 ft 139 kts 12°
2026-05-07 06:34 59.17999 15.02044 743 ft 138 kts 12°
2026-05-07 06:34 59.18941 15.02421 567 ft 138 kts 11°
2026-05-07 06:34 59.19883 15.02792 392 ft 137 kts 11°
2026-05-07 06:34 59.20823 15.03164 219 ft 137 kts 11°
2026-05-07 06:35 59.21705 15.03523 202 ft 112 kts 12°
2026-05-07 06:35 59.22303 15.03766 204 ft 63 kts 12°
2026-05-07 06:35 59.22573 15.03876 197 ft 18 kts 12°
2026-05-07 06:35 59.22693 15.03924 200 ft 17 kts 11°
2026-05-07 06:36 59.22792 15.03990 188 ft 11 kts 53°
2026-05-07 06:36 59.22789 15.04049 201 ft 6 kts 103°
2026-05-07 06:36 59.22774 15.04187 189 ft 14 kts 102°
2026-05-07 06:36 59.22751 15.04363 198 ft 12 kts 123°
2026-05-07 06:37 59.22679 15.04383 199 ft 10 kts 191°
2026-05-07 06:37 59.22612 15.04355 198 ft 10 kts 192°
2026-05-07 06:37 59.22549 15.04331 198 ft 8 kts 186°
2026-05-07 06:37 59.22513 15.04385 205 ft 6 kts 113°
2026-05-07 06:38 59.22505 15.04447 202 ft 3 kts 105°
2026-05-07 06:38 59.22503 15.04461 191 ft 0 kts 103°